Location: Tierra del Sol
(32.6128°N, 116.3319°W)
Time: 01:01:03
(UTC-07:00)

Amateur Radio Satellites - All Passes

Search period start: 25 August 2016 00:31
Search period end: 26 August 2016 00:31
Location: Tierra del Sol, 32.6128°N, 116.3319°W

Satellite Date Start Highest point End Downlink Frequencies (MHz)
Time Altitude Azimuth
NANOSAT C BR1 25 Aug 00:32:24 00:36:34 68° 284° (WNW) 00:40:43 145.865
VELOX 1 25 Aug 00:33:11 00:37:08 32° 262° (W) 00:41:09 145.980
SO-50 25 Aug 00:36:31 00:41:16 53° 301° (WNW) 00:46:00 436.795
O/OREOS (USA 219) 25 Aug 00:44:07 00:48:44 77° 72° (ENE) 00:53:19 437.305
CUBEBUG 1 25 Aug 00:44:32 00:47:42 20° 265° (W) 00:50:55 437.445
JAS-2 25 Aug 01:01:31 01:08:24 89° 105° (ESE) 01:16:00 435.910
DX 1 25 Aug 01:01:53 01:05:16 22° 264° (W) 01:08:41 434.975-435.025
QB50P1 25 Aug 01:15:31 01:18:32 19° 290° (WNW) 01:21:33 145.935-145.965
SPROUT 25 Aug 01:16:46 01:20:00 21° 264° (W) 01:23:16 437.525
POPSAT HIP 1 25 Aug 01:25:43 01:28:10 15° 292° (WNW) 01:30:38 437.405
SWISSCUBE 25 Aug 01:26:07 01:29:20 18° 68° (ENE) 01:32:34 437.505
BUGSAT 1 25 Aug 01:28:51 01:32:39 36° 287° (WNW) 01:36:23 437.445
Cosmos 2499 25 Aug 01:35:52 01:40:40 20° 276° (W) 01:45:32 435.465 / 435.565
BEESAT 25 Aug 01:42:53 01:46:45 25° 70° (ENE) 01:50:36 436.000
Oscar 19 25 Aug 01:44:52 01:49:50 43° 99° (E) 01:54:44 437.125/150
TISAT 1 25 Aug 01:46:11 01:50:15 45° 260° (W) 01:54:21 437.305
RS-15 25 Aug 02:24:41 02:36:04 71° 300° (WNW) 02:48:09 29.354- 29.394
ITUPSAT 1 25 Aug 02:27:12 02:31:57 77° 77° (ENE) 02:36:42 437.325
Gurwin Techsat 1B 25 Aug 02:30:23 02:35:35 54° 101° (E) 02:40:46 435.225
PHONESAT 2.4 25 Aug 02:34:00 02:36:59 69° 151° (SSE) 02:39:58 2401.200-2431.200
KKS-1 25 Aug 02:44:06 02:44:08 10° 65° (ENE) 02:44:10 437.445
JAS-2 25 Aug 02:49:18 02:52:43 14° 296° (WNW) 02:56:16 435.910
ITAMSAT 1 25 Aug 02:52:52 02:57:01 24° 96° (E) 03:01:09 435.822/435.867
SWISSCUBE 25 Aug 03:02:27 03:06:49 36° 261° (W) 03:11:13 437.505
AO-7 25 Aug 03:09:22 03:15:13 21° 95° (E) 03:21:00 29.400- 29.500
BEESAT 25 Aug 03:20:24 03:24:22 26° 263° (W) 03:28:22 436.000
Oscar 19 25 Aug 03:25:14 03:28:45 19° 293° (WNW) 03:32:17 437.125/150
STARS 25 Aug 03:25:44 03:28:15 15° 67° (ENE) 03:30:46 437.465
MOZHAYETS 4 25 Aug 03:59:38 04:04:11 78° 257° (WSW) 04:08:46
Cosmos 2491 25 Aug 03:59:39 04:00:55 10° 64° (ENE) 04:02:10 435.465 / 435.565
PHONESAT 2.4 25 Aug 04:10:58 04:13:31 24° 346° (NNW) 04:16:03 2401.200-2431.200
Gurwin Techsat 1B 25 Aug 04:11:59 04:15:01 16° 295° (WNW) 04:18:03 435.225
KKS-1 25 Aug 04:15:41 04:20:06 62° 259° (W) 04:24:34 437.445
ITAMSAT 1 25 Aug 04:31:54 04:36:26 32° 290° (WNW) 04:40:59 435.822/435.867
AO-85 25 Aug 04:36:33 04:39:26 15° 108° (ESE) 04:42:17 145.980
RS-15 25 Aug 04:43:10 04:51:15 20° 327° (NNW) 04:59:38 29.354- 29.394
STARS 25 Aug 05:00:04 05:04:13 39° 261° (W) 05:08:24 437.465
AO-7 25 Aug 05:00:13 05:08:27 69° 290° (WNW) 05:16:39 29.400- 29.500
YUBILEINY 25 Aug 05:07:41 05:12:27 16° 80° (E) 05:17:14 435.215
CUBESAT XI-V 25 Aug 05:11:34 05:16:07 73° 77° (ENE) 05:20:44 437.345
HORYU 2 25 Aug 05:33:41 05:38:01 55° 101° (E) 05:42:19 437.375
PHONESAT 2.4 25 Aug 05:48:19 05:50:28 18° 3° (N) 05:52:37 2401.200-2431.200
Cosmos 2491 25 Aug 05:50:26 05:59:16 72° 83° (E) 06:08:04 435.465 / 435.565
GOMX 1 25 Aug 06:12:51 06:17:16 25° 94° (E) 06:21:30 467.674
AO-85 25 Aug 06:14:11 06:19:30 60° 300° (WNW) 06:24:33 145.980
BRITE-PL 25 Aug 06:20:54 06:26:37 74° 101° (E) 06:32:11 437.365/2234.400
DOVE 4 25 Aug 06:35:02 06:38:14 17° 92° (E) 06:41:18 437.250
Cubesat XI-IV 25 Aug 06:37:39 06:42:42 43° 99° (E) 06:47:42 437.490
CUTE-I 25 Aug 06:50:19 06:55:33 59° 101° (E) 07:00:46 437.470
AO-7 25 Aug 06:56:58 06:59:42 12° 308° (NW) 07:02:25 29.400- 29.500
STRAND 1 25 Aug 06:59:08 07:04:04 51° 73° (ENE) 07:09:00 437.568
YUBILEINY 25 Aug 06:59:13 07:08:03 83° 276° (W) 07:16:56 435.215
NOAA 15 25 Aug 07:01:01 07:06:21 83° 284° (WNW) 07:11:40 137.62
NOAA 18 25 Aug 07:06:02 07:11:31 73° 103° (ESE) 07:16:56 137.9125
Cosmos 2504 25 Aug 07:06:17 07:14:06 40° 89° (E) 07:21:29 435.465 / 435.565
RS-15 25 Aug 07:09:03 07:11:19 11° 5° (N) 07:13:36 29.354- 29.394
HORYU 2 25 Aug 07:12:56 07:14:02 11° 295° (WNW) 07:15:08 437.375
PHONESAT 2.4 25 Aug 07:24:30 07:27:19 36° 20° (NNE) 07:30:07 2401.200-2431.200
LilacSat-2 25 Aug 07:25:31 07:29:01 38° 286° (WNW) 07:32:30 437.200
CANX-2 25 Aug 07:33:38 07:35:47 14° 94° (E) 07:37:55 2200.000
CINEMA 3 25 Aug 07:36:28 07:39:32 18° 93° (E) 07:42:31 145.822/145.860
CUTE 1.7 + AOD 2 25 Aug 07:40:14 07:42:28 14° 94° (E) 07:44:43 437.475
PRISM 25 Aug 07:47:46 07:49:51 14° 68° (ENE) 07:51:58 437.425
Cosmos 2491 25 Aug 07:49:25 07:55:07 19° 279° (W) 08:00:50 435.465 / 435.565
GOMX 1 25 Aug 07:50:30 07:55:16 32° 289° (WNW) 07:59:51 467.674
ISS 25 Aug 07:59:05 08:00:05 11° 125° (SE) 08:01:03 145.825
BRITE-PL 25 Aug 08:01:43 08:04:20 13° 296° (WNW) 08:06:56 437.365/2234.400
COMPASS 1 25 Aug 08:03:10 08:04:38 12° 93° (E) 08:06:06 437.405
HO-68 25 Aug 08:07:29 08:14:08 40° 99° (E) 08:20:45 435.675
DOVE 4 25 Aug 08:11:21 08:16:06 41° 287° (WNW) 08:20:34 437.250
CUBEBUG 2 25 Aug 08:14:51 08:16:03 11° 92° (E) 08:17:14 437.445
Cubesat XI-IV 25 Aug 08:18:41 08:22:23 20° 293° (WNW) 08:26:06 437.490
CUTE-I 25 Aug 08:32:16 08:35:02 14° 295° (WNW) 08:37:49 437.470
STRAND 1 25 Aug 08:40:45 08:43:27 14° 266° (W) 08:46:10 437.568
NOAA 18 25 Aug 08:49:22 08:51:28 12° 298° (WNW) 08:53:34 137.9125
SEEDS 25 Aug 08:51:44 08:55:56 78° 100° (E) 09:00:09 437.485
Cosmos 2504 25 Aug 08:59:35 09:07:21 37° 283° (WNW) 09:14:42 435.465 / 435.565
PHONESAT 2.4 25 Aug 09:00:57 09:03:38 31° 213° (SSW) 09:06:19 2401.200-2431.200
YUBILEINY 25 Aug 09:02:24 09:06:06 13° 294° (WNW) 09:09:50 435.215
CANX-2 25 Aug 09:07:49 09:11:43 37° 286° (WNW) 09:15:37 2200.000
SO-50 25 Aug 09:12:31 09:16:48 38° 57° (ENE) 09:20:57 436.795
CINEMA 3 25 Aug 09:12:45 09:16:43 30° 288° (WNW) 09:20:30 145.822/145.860
CUTE 1.7 + AOD 2 25 Aug 09:14:31 09:18:23 36° 286° (WNW) 09:22:16 437.475
RS-15 25 Aug 09:20:42 09:30:35 26° 40° (NE) 09:40:17 29.354- 29.394
PRISM 25 Aug 09:21:04 09:24:48 35° 261° (W) 09:28:35 437.425
UNISAT 6 25 Aug 09:21:12 09:24:13 17° 69° (ENE) 09:27:13 437.425
AIST 1 25 Aug 09:26:26 09:30:40 56° 93° (E) 09:34:56
AAUSAT CUBESAT 2 25 Aug 09:30:57 09:35:04 65° 284° (WNW) 09:39:12 437.432
ISS 25 Aug 09:33:01 09:36:10 47° 318° (NW) 09:39:22 145.825
COMPASS 1 25 Aug 09:36:24 09:40:20 42° 286° (WNW) 09:44:17 437.405
BEESAT 2 25 Aug 09:38:52 09:41:19 16° 109° (ESE) 09:43:47 435.950
CUBEBUG 2 25 Aug 09:48:52 09:52:53 43° 286° (WNW) 09:56:48 437.445
Oscar 11 25 Aug 09:49:09 09:53:27 71° 101° (E) 09:57:44 145.826/435.025
HUMSAT D 25 Aug 09:50:10 09:50:53 10° 93° (E) 09:51:36 437.325/437.525
UWE-3 25 Aug 09:52:09 09:56:17 62° 284° (WNW) 10:00:22 435.000/436.395/437.385
FUNcube-1 25 Aug 09:52:56 09:57:05 72° 102° (ESE) 10:01:10 145.935
HO-68 25 Aug 09:55:27 10:01:37 32° 294° (WNW) 10:07:45 435.675
ANTELSAT 25 Aug 09:56:43 10:01:06 43° 74° (ENE) 10:05:27 437.575/2403.000
DELFI C3 25 Aug 09:58:10 10:01:47 32° 98° (E) 10:05:23 145.870
BEESAT 3 25 Aug 10:00:57 10:04:48 69° 116° (ESE) 10:08:42 437.485
CUSAT 1 25 Aug 10:09:22 10:15:16 35° 78° (ENE) 10:22:07 437.405
ZACube-1 25 Aug 10:12:56 10:17:01 56° 285° (WNW) 10:21:03 437.345
JUGNU 25 Aug 10:21:45 10:22:51 10° 162° (SSE) 10:23:57 437.505
TIGRISAT 25 Aug 10:28:08 10:32:48 85° 255° (WSW) 10:37:25 435.000
QB50P1 25 Aug 10:29:18 10:30:56 12° 67° (ENE) 10:32:33 145.935-145.965
POPSAT HIP 1 25 Aug 10:38:05 10:40:36 15° 68° (ENE) 10:43:05 437.405
DANDE 25 Aug 10:40:57 10:45:17 22° 79° (ENE) 10:50:28 436.750
SO-50 25 Aug 10:54:03 10:56:53 17° 252° (WSW) 10:59:41 436.795
UNISAT 6 25 Aug 10:56:19 11:00:37 37° 262° (W) 11:04:52 437.425
QB50P2 25 Aug 11:06:11 11:10:06 36° 73° (ENE) 11:14:01 145.880/145.840
DUCHIFAT 1 25 Aug 11:07:38 11:11:20 30° 72° (ENE) 11:15:05 145.980
POLYITAN 1 25 Aug 11:08:41 11:12:37 36° 73° (ENE) 11:16:34 437.675
JAS-2 25 Aug 11:12:08 11:15:40 19° 66° (ENE) 11:19:16 435.910
BEESAT 2 25 Aug 11:15:21 11:18:50 30° 303° (WNW) 11:22:24 435.950
GONETS M04 25 Aug 11:15:55 11:22:56 28° 84° (E) 11:29:58
NANOSAT C BR1 25 Aug 11:19:41 11:23:46 46° 74° (ENE) 11:27:52 145.865
ESTCUBE 1 25 Aug 11:21:00 11:24:28 21° 96° (E) 11:27:56 437.505/2401.250
HUMSAT D 25 Aug 11:22:47 11:26:40 43° 285° (WNW) 11:30:33 437.325/437.525
PCSat 25 Aug 11:31:22 11:36:06 32° 108° (ESE) 11:40:51 145.827
RS-15 25 Aug 11:32:26 11:44:53 89° 63° (ENE) 11:56:58 29.354- 29.394
DELFI C3 25 Aug 11:34:07 11:36:18 14° 291° (WNW) 11:38:28 145.870
50 SAT 25 Aug 11:34:51 11:36:25 12° 94° (E) 11:37:59 437.505
ANTELSAT 25 Aug 11:35:28 11:37:55 14° 266° (W) 11:40:22 437.575/2403.000
AISAT 25 Aug 11:40:37 11:43:46 19° 95° (E) 11:46:54 437.250
CUSAT 1 25 Aug 11:51:10 11:57:09 37° 267° (W) 12:04:05 437.405
AUBIESAT-1 25 Aug 11:55:59 12:00:02 80° 106° (ESE) 12:03:45 437.475
M-CUBED/EXP-1 PRIME 25 Aug 11:59:21 12:03:28 71° 288° (WNW) 12:07:13 437.505
QB50P1 25 Aug 12:02:08 12:06:14 46° 261° (W) 12:10:22 145.935-145.965
UKube-1 25 Aug 12:04:15 12:06:58 16° 95° (E) 12:09:39 .
JUGNU 25 Aug 12:07:02 12:11:12 20° 171° (S) 12:15:20 437.505
Cosmos 2499 25 Aug 12:11:18 12:19:23 53° 91° (E) 12:26:53 435.465 / 435.565
POPSAT HIP 1 25 Aug 12:12:05 12:16:01 36° 262° (W) 12:19:59 437.405
BUGSAT 1 25 Aug 12:13:08 12:17:22 79° 77° (ENE) 12:21:38 437.445
DANDE 25 Aug 12:22:37 12:27:54 45° 264° (W) 12:34:40 436.750
VELOX 1 25 Aug 12:27:10 12:31:37 66° 101° (ESE) 12:36:01 145.980
CUBEBUG 1 25 Aug 12:36:09 12:40:35 76° 284° (WNW) 12:44:58 437.445
QB50P2 25 Aug 12:43:36 12:45:57 14° 266° (W) 12:48:20 145.880/145.840
DUCHIFAT 1 25 Aug 12:44:13 12:47:02 17° 265° (W) 12:49:51 145.980
POLYITAN 1 25 Aug 12:46:10 12:48:30 14° 266° (W) 12:50:50 437.675
DX 1 25 Aug 12:53:19 12:57:43 88° 93° (E) 13:02:06 434.975-435.025
JAS-2 25 Aug 12:55:37 13:00:26 39° 262° (W) 13:05:22 435.910
Oscar 19 25 Aug 12:57:16 13:02:01 39° 72° (ENE) 13:06:49 437.125/150
ESTCUBE 1 25 Aug 12:57:22 13:01:12 28° 289° (WNW) 13:05:03 437.505/2401.250
NANOSAT C BR1 25 Aug 12:58:29 12:59:40 11° 267° (W) 13:00:52 145.865
AIST 2 25 Aug 13:04:13 13:08:14 56° 300° (WNW) 13:12:18 435.215
SPROUT 25 Aug 13:05:54 13:10:12 86° 283° (WNW) 13:14:27 437.525
50 SAT 25 Aug 13:06:50 13:10:01 29° 287° (WNW) 13:13:12 437.505
GONETS M04 25 Aug 13:10:46 13:19:10 52° 281° (W) 13:27:42
O/OREOS (USA 219) 25 Aug 13:14:43 13:17:15 15° 99° (E) 13:19:48 437.305
PCSat 25 Aug 13:14:49 13:19:25 28° 303° (WNW) 13:24:05 145.827
AISAT 25 Aug 13:16:19 13:20:13 30° 288° (WNW) 13:24:05 437.250
TISAT 1 25 Aug 13:34:36 13:38:29 36° 98° (E) 13:42:19 437.305
UKube-1 25 Aug 13:39:08 13:43:02 33° 288° (WNW) 13:46:55 .
SRMSAT 25 Aug 13:39:44 13:43:09 16° 167° (SSE) 13:46:35 437.500
Gurwin Techsat 1B 25 Aug 13:46:53 13:52:03 55° 73° (ENE) 13:57:14 435.225
RS-15 25 Aug 13:47:58 13:55:39 20° 261° (W) 14:03:16 29.354- 29.394
JUGNU 25 Aug 13:55:02 13:59:37 23° 181° (S) 14:04:10 437.505
AO-7 25 Aug 14:04:17 14:10:04 21° 58° (ENE) 14:15:50 29.400- 29.500
Cosmos 2499 25 Aug 14:06:02 14:12:38 26° 285° (WNW) 14:18:56 435.465 / 435.565
ITAMSAT 1 25 Aug 14:06:39 14:10:45 24° 68° (ENE) 14:14:52 435.822/435.867
ITUPSAT 1 25 Aug 14:32:40 14:36:45 28° 97° (E) 14:40:50 437.325
Oscar 19 25 Aug 14:37:49 14:41:26 19° 265° (W) 14:45:03 437.125/150
AO-85 25 Aug 14:51:17 14:55:00 30° 56° (NE) 14:58:29 145.980
O/OREOS (USA 219) 25 Aug 14:52:07 14:56:15 37° 293° (WNW) 15:00:27 437.305
SWISSCUBE 25 Aug 15:06:35 15:11:22 80° 103° (ESE) 15:16:07 437.505
TISAT 1 25 Aug 15:11:29 15:13:46 14° 292° (WNW) 15:16:02 437.305
BEESAT 25 Aug 15:24:02 15:28:47 74° 284° (WNW) 15:33:32 436.000
SRMSAT 25 Aug 15:27:11 15:31:41 23° 176° (S) 15:36:12 437.500
Gurwin Techsat 1B 25 Aug 15:29:31 15:32:16 14° 267° (W) 15:34:59 435.225
JUGNU 25 Aug 15:44:07 15:48:00 18° 191° (S) 15:51:53 437.505
ITAMSAT 1 25 Aug 15:45:23 15:50:00 32° 262° (W) 15:54:38 435.822/435.867
AO-7 25 Aug 15:53:35 16:01:57 76° 255° (WSW) 16:10:20 29.400- 29.500
MOZHAYETS 4 25 Aug 15:59:21 16:03:30 34° 98° (E) 16:07:39
ISS 25 Aug 16:04:41 16:07:17 21° 36° (NE) 16:09:52 145.825
ITUPSAT 1 25 Aug 16:10:38 16:14:24 24° 291° (WNW) 16:18:11 437.325
KKS-1 25 Aug 16:11:20 16:15:25 34° 98° (E) 16:19:27 437.445
HORYU 2 25 Aug 16:27:26 16:31:17 29° 71° (ENE) 16:35:08 437.375
AO-85 25 Aug 16:32:36 16:35:04 16° 252° (WSW) 16:37:27 145.980
NOAA 15 25 Aug 16:42:25 16:42:43 10° 62° (ENE) 16:43:01 137.62
STARS 25 Aug 16:53:41 16:57:58 50° 100° (E) 17:02:12 437.465
Cosmos 2491 25 Aug 16:54:27 16:58:36 14° 79° (E) 17:02:46 435.465 / 435.565
CUBESAT XI-V 25 Aug 17:13:05 17:17:00 26° 96° (E) 17:20:55 437.345
YUBILEINY 25 Aug 17:15:38 17:23:44 40° 77° (ENE) 17:31:44 435.215
SRMSAT 25 Aug 17:15:53 17:20:15 21° 187° (S) 17:24:38 437.500
GOMX 1 25 Aug 17:17:00 17:20:06 17° 66° (ENE) 17:23:20 467.674
BRITE-PL 25 Aug 17:27:11 17:31:37 47° 73° (ENE) 17:36:27 437.365/2234.400
DOVE 4 25 Aug 17:37:04 17:38:52 12° 64° (ENE) 17:40:41 437.250
MOZHAYETS 4 25 Aug 17:37:18 17:40:23 18° 291° (WNW) 17:43:28
ISS 25 Aug 17:40:52 17:43:43 27° 230° (SW) 17:46:33 145.825
KKS-1 25 Aug 17:48:46 17:51:40 17° 292° (WNW) 17:54:32 437.445
AO-7 25 Aug 17:54:40 17:55:41 10° 269° (W) 17:56:43 29.400- 29.500
Cubesat XI-IV 25 Aug 17:55:07 18:00:12 46° 72° (ENE) 18:05:16 437.490
LilacSat-2 25 Aug 18:02:29 18:06:13 48° 75° (ENE) 18:09:55 437.200
HORYU 2 25 Aug 18:04:32 18:07:47 20° 264° (W) 18:11:04 437.375
CUTE-I 25 Aug 18:07:32 18:12:48 62° 74° (ENE) 18:18:03 437.470
NOAA 15 25 Aug 18:16:29 18:21:43 82° 257° (WSW) 18:27:01 137.62
BEESAT 3 25 Aug 18:24:35 18:25:36 11° 50° (NE) 18:26:37 437.485
NOAA 18 25 Aug 18:27:40 18:33:14 89° 73° (ENE) 18:38:48 137.9125
STARS 25 Aug 18:32:17 18:33:49 12° 294° (WNW) 18:35:21 437.465
HO-68 25 Aug 18:33:01 18:37:48 19° 61° (ENE) 18:42:34 435.675
CINEMA 3 25 Aug 18:34:28 18:36:33 13° 66° (ENE) 18:38:38 145.822/145.860
Cosmos 2491 25 Aug 18:45:27 18:54:10 87° 275° (W) 19:02:57 435.465 / 435.565
CUBESAT XI-V 25 Aug 18:50:25 18:54:14 25° 289° (WNW) 18:58:03 437.345
GOMX 1 25 Aug 18:52:58 18:57:39 47° 262° (W) 19:02:41 467.674
Cosmos 2504 25 Aug 18:57:02 19:04:11 62° 82° (E) 19:11:16 435.465 / 435.565
SRMSAT 25 Aug 19:06:06 19:08:46 13° 196° (SSW) 19:11:28 437.500
BRITE-PL 25 Aug 19:08:04 19:10:26 14° 269° (W) 19:12:53 437.365/2234.400
DOVE 4 25 Aug 19:10:47 19:15:48 71° 259° (W) 19:21:03 437.250
YUBILEINY 25 Aug 19:12:34 19:20:18 37° 273° (W) 19:28:00 435.215
STRAND 1 25 Aug 19:14:43 19:18:54 25° 97° (E) 19:23:03 437.568
Cubesat XI-IV 25 Aug 19:36:54 19:40:24 18° 265° (W) 19:43:56 437.490
BEESAT 2 25 Aug 19:37:06 19:40:46 34° 58° (ENE) 19:44:25 435.950
SEEDS 25 Aug 19:39:14 19:42:49 28° 72° (ENE) 19:46:23 437.485
CUTE-I 25 Aug 19:50:55 19:53:09 13° 267° (W) 19:55:24 437.470
CANX-2 25 Aug 19:55:25 19:59:37 83° 76° (ENE) 20:03:50 2200.000
BEESAT 3 25 Aug 19:59:42 20:03:35 56° 245° (WSW) 20:07:26 437.485
CUTE 1.7 + AOD 2 25 Aug 20:01:59 20:06:11 85° 78° (ENE) 20:10:24 437.475
CINEMA 3 25 Aug 20:08:08 20:13:04 63° 259° (W) 20:18:03 145.822/145.860
AAUSAT CUBESAT 2 25 Aug 20:16:32 20:20:23 41° 74° (ENE) 20:24:16 437.432
HO-68 25 Aug 20:17:38 20:24:47 70° 257° (WSW) 20:31:58 435.675
COMPASS 1 25 Aug 20:22:06 20:26:10 67° 76° (ENE) 20:30:16 437.405
PCSat 25 Aug 20:25:51 20:27:28 11° 48° (NE) 20:29:05 145.827
Oscar 11 25 Aug 20:39:37 20:43:22 30° 72° (ENE) 20:47:07 145.826/435.025
CUBEBUG 2 25 Aug 20:41:15 20:46:00 84° 79° (E) 20:50:40 437.445
DELFI C3 25 Aug 20:42:23 20:43:07 10° 67° (ENE) 20:43:51 145.870
FUNcube-1 25 Aug 20:43:48 20:47:47 32° 73° (ENE) 20:51:42 145.935
UWE-3 25 Aug 20:43:49 20:48:21 58° 76° (ENE) 20:52:49 435.000/436.395/437.385
Cosmos 2491 25 Aug 20:48:08 20:52:10 14° 294° (WNW) 20:56:15 435.465 / 435.565
Cosmos 2504 25 Aug 20:52:28 20:56:46 17° 277° (W) 21:01:03 435.465 / 435.565
STRAND 1 25 Aug 20:53:35 20:57:59 30° 290° (WNW) 21:02:22 437.568
ZACube-1 25 Aug 21:03:30 21:07:57 60° 76° (ENE) 21:12:19 437.345
PRISM 25 Aug 21:06:40 21:10:37 40° 99° (E) 21:14:33 437.425
AIST 1 25 Aug 21:15:25 21:19:44 56° 267° (W) 21:24:00
SEEDS 25 Aug 21:15:44 21:18:29 17° 265° (W) 21:21:15 437.485
BEESAT 2 25 Aug 21:16:00 21:18:16 15° 251° (WSW) 21:20:31 435.950
AIST 2 25 Aug 21:30:08 21:33:30 23° 55° (NE) 21:36:51 435.215
AAUSAT CUBESAT 2 25 Aug 21:54:48 21:56:01 11° 267° (W) 21:57:14 437.432
ANTELSAT 25 Aug 21:55:14 21:56:42 12° 93° (E) 21:58:10 437.575/2403.000
PCSat 25 Aug 22:06:09 22:11:35 89° 66° (ENE) 22:17:00 145.827
HUMSAT D 25 Aug 22:08:57 22:13:06 65° 76° (ENE) 22:17:13 437.325/437.525
DELFI C3 25 Aug 22:13:47 22:17:31 43° 261° (W) 22:21:17 145.870
Oscar 11 25 Aug 22:16:34 22:19:29 18° 265° (W) 22:22:24 145.826/435.025
ESTCUBE 1 25 Aug 22:18:02 22:19:39 12° 66° (ENE) 22:21:16 437.505/2401.250
FUNcube-1 25 Aug 22:20:56 22:24:00 18° 265° (W) 22:27:02 145.935
UWE-3 25 Aug 22:24:22 22:25:02 10° 268° (W) 22:25:41 435.000/436.395/437.385
TIGRISAT 25 Aug 22:24:56 22:28:31 26° 97° (E) 22:32:04 435.000
AUBIESAT-1 25 Aug 22:36:26 22:40:49 48° 70° (ENE) 22:45:18 437.475
AISAT 25 Aug 22:36:39 22:36:49 10° 65° (ENE) 22:36:59 437.250
M-CUBED/EXP-1 PRIME 25 Aug 22:40:01 22:44:35 67° 71° (ENE) 22:49:16 437.505
PRISM 25 Aug 22:43:33 22:45:32 13° 293° (WNW) 22:47:29 437.425
UNISAT 6 25 Aug 22:52:18 22:56:34 64° 101° (E) 23:00:47 437.425
AIST 2 25 Aug 23:08:27 23:11:54 25° 249° (WSW) 23:15:20 435.215
CUSAT 1 25 Aug 23:11:00 23:12:55 18° 89° (E) 23:15:01 437.405
NANOSAT C BR1 25 Aug 23:11:40 23:12:11 10° 93° (E) 23:12:41 145.865
VELOX 1 25 Aug 23:20:07 23:24:02 32° 72° (ENE) 23:27:59 145.980
SO-50 25 Aug 23:21:55 23:26:23 37° 113° (ESE) 23:30:51 436.795
GONETS M04 25 Aug 23:26:16 23:35:05 66° 81° (E) 23:43:50
CUBEBUG 1 25 Aug 23:27:19 23:31:32 48° 75° (ENE) 23:35:48 437.445
O/OREOS (USA 219) 25 Aug 23:28:23 23:31:07 15° 61° (ENE) 23:33:52 437.305
ANTELSAT 25 Aug 23:29:33 23:33:36 43° 286° (WNW) 23:37:37 437.575/2403.000
50 SAT 25 Aug 23:39:02 23:42:31 52° 75° (ENE) 23:46:00 437.505
RS-15 25 Aug 23:42:23 23:49:20 19° 99° (E) 23:56:26 29.354- 29.394
DX 1 25 Aug 23:44:15 23:48:20 41° 73° (ENE) 23:52:27 434.975-435.025
DANDE 25 Aug 23:49:13 23:50:19 12° 92° (E) 23:51:24 436.750
QB50P1 25 Aug 23:51:23 23:55:18 37° 99° (E) 23:59:11 145.935-145.965
ESTCUBE 1 25 Aug 23:51:37 23:55:57 52° 260° (W) 00:00:20 437.505/2401.250
SPROUT 25 Aug 23:54:49 23:58:48 38° 73° (ENE) 00:02:49 437.525
Cosmos 2499 26 Aug 00:00:30 00:07:35 84° 84° (E) 00:14:47 435.465 / 435.565
BUGSAT 1 26 Aug 00:00:55 00:03:25 16° 94° (E) 00:05:54 437.445
POPSAT HIP 1 26 Aug 00:01:03 00:05:09 48° 100° (E) 00:09:11 437.405
TIGRISAT 26 Aug 00:01:55 00:05:00 20° 290° (WNW) 00:08:04 435.000
JAS-2 26 Aug 00:07:07 00:13:24 35° 98° (E) 00:20:10 435.910
AISAT 26 Aug 00:08:19 00:12:42 61° 259° (W) 00:17:08 437.250
AUBIESAT-1 26 Aug 00:13:05 00:15:25 14° 263° (W) 00:17:48 437.475
TISAT 1 26 Aug 00:22:52 00:25:28 16° 69° (ENE) 00:28:03 437.305
